User: anonymous   Login
Location: Corcelles
(46.1547°N, 4.7234°E)
Time: 22:55:51
(UTC+00:00)
Language:

Cosmos 1725 Rocket - Orbit

View from above orbital plane
View from above orbital plane
View from above satellite
View from above satellite

Ground track
Ground track

The orbit data is extracted from the following two-line orbital elements,

1 16494U 86005B   20273.48599671 +.00000139 +00000-0 +12623-3 0  9996
2 16494 082.9282 258.9805 0020861 119.2629 352.9376 13.76509983742785
Epoch (UTC): 29 September 2020 11:39:50
Eccentricity: 0.0020861
inclination: 82.9282°
perigee height: 961 km
apogee height: 991 km
right ascension of ascending node: 258.9805°
argument of perigee: 119.2629°
revolutions per day: 13.76509983
mean anomaly at epoch: 352.9376°
orbit number at epoch: 74278

The dashed part of the orbit path shows where the satellite is in the earth's shadow,  

DLR